When you browse on this site, cookies collect data to enhance your experience and personalize the content and advertising you see.
Visit our Privacy Policy to learn more. By continuing to use the site, you agree to this use of cookies and data.
  • In Schweiz
  • Länderverzeichnis
  • Für 7 Tage
  • Wassertemperatur
  • Satellitenkarten
  • Wetterkarte
  • Widgets
  • user-avatar
    Anmelden

    Stündliche Wetter Campo Grande

    Heute, 16 Januar, Mittwoch

    Zeit Temperatur Niederschläge Wind Luftdruck Luftfeuchtigkeit
    00:00 +26°C° 0 mm 1 m/S 711 mmHg 70%
    01:00 +26°C° 0 mm 1 m/S 711 mmHg 71%
    02:00 +26°C° 0 mm 1 m/S 711 mmHg 72%
    03:00 +26°C° 0 mm 1 m/S 711 mmHg 72%
    04:00 +25°C° 0 mm 1 m/S 711 mmHg 73%
    05:00 +25°C° 0 mm 1 m/S 711 mmHg 74%
    06:00 +27°C° 0 mm 1 m/S 712 mmHg 68%
    07:00 +29°C° 0 mm 2 m/S 712 mmHg 63%
    08:00 +31°C° 0 mm 2 m/S 713 mmHg 58%
    09:00 +33°C° 0 mm 3 m/S 713 mmHg 53%
    10:00 +34°C° 0 mm 3 m/S 713 mmHg 48%
    11:00 +36°C° 0 mm 3 m/S 713 mmHg 42%
    12:00 +36°C° 0 mm 3 m/S 712 mmHg 42%
    13:00 +36°C° 0 mm 2 m/S 712 mmHg 42%
    14:00 +36°C° 0 mm 2 m/S 712 mmHg 41%
    15:00 +36°C° 0 mm 2 m/S 711 mmHg 43%
    16:00 +35°C° 0 mm 2 m/S 711 mmHg 44%
    17:00 +35°C° 0 mm 2 m/S 710 mmHg 46%
    18:00 +32°C° 0 mm 2 m/S 710 mmHg 49%
    19:00 +31°C° 0 mm 2 m/S 710 mmHg 51%
    20:00 +29°C° 0 mm 2 m/S 710 mmHg 54%
    21:00 +29°C° 0 mm 2 m/S 710 mmHg 57%
    22:00 +28°C° 0 mm 2 m/S 711 mmHg 59%
    23:00 +28°C° 0 mm 2 m/S 711 mmHg 62%

    Morgen, 17 Januar, Donnerstag

    Zeit Temperatur Niederschläge Wind Luftdruck Luftfeuchtigkeit
    00:00 +27°C° 0 mm 2 m/S 711 mmHg 62%
    01:00 +27°C° 0 mm 2 m/S 711 mmHg 63%
    02:00 +27°C° 0 mm 2 m/S 710 mmHg 63%
    03:00 +26°C° 0 mm 2 m/S 710 mmHg 64%
    04:00 +26°C° 0 mm 2 m/S 711 mmHg 66%
    05:00 +26°C° 0 mm 2 m/S 711 mmHg 67%
    06:00 +28°C° 0 mm 2 m/S 711 mmHg 64%
    07:00 +30°C° 0 mm 2 m/S 712 mmHg 60%
    08:00 +33°C° 0 mm 3 m/S 713 mmHg 56%
    09:00 +34°C° 0 mm 2 m/S 713 mmHg 50%
    10:00 +35°C° 0 mm 2 m/S 712 mmHg 45%
    11:00 +37°C° 0 mm 2 m/S 712 mmHg 39%
    12:00 +37°C° 0 mm 2 m/S 712 mmHg 38%
    13:00 +38°C° 0 mm 2 m/S 711 mmHg 36%
    14:00 +37°C° 0 mm 1 m/S 710 mmHg 35%
    15:00 +36°C° 0 mm 1 m/S 710 mmHg 38%
    16:00 +35°C° 0 mm 1 m/S 709 mmHg 41%
    17:00 +34°C° 0 mm 1 m/S 709 mmHg 44%
    18:00 +33°C° 0 mm 1 m/S 709 mmHg 46%
    19:00 +32°C° 0 mm 2 m/S 709 mmHg 47%
    20:00 +31°C° 0 mm 2 m/S 710 mmHg 49%
    21:00 +31°C° 0 mm 2 m/S 710 mmHg 50%
    22:00 +31°C° 0 mm 2 m/S 710 mmHg 50%
    23:00 +30°C° 0 mm 2 m/S 710 mmHg 51%

    übermorgen, 18 Januar, Freitag

    Zeit Temperatur Niederschläge Wind Luftdruck Luftfeuchtigkeit
    00:00 +30°C° 0 mm 2 m/S 710 mmHg 54%
    01:00 +29°C° 0 mm 2 m/S 709 mmHg 56%
    02:00 +28°C° 0 mm 2 m/S 709 mmHg 59%
    03:00 +28°C° 0.1 mm 2 m/S 709 mmHg 63%
    04:00 +27°C° 0.1 mm 2 m/S 709 mmHg 66%
    05:00 +27°C° 0.1 mm 2 m/S 709 mmHg 70%
    06:00 +28°C° 0 mm 3 m/S 710 mmHg 67%
    07:00 +29°C° 0 mm 3 m/S 711 mmHg 65%
    08:00 +31°C° 0 mm 3 m/S 711 mmHg 62%
    09:00 +33°C° 0 mm 3 m/S 712 mmHg 56%
    10:00 +35°C° 0 mm 3 m/S 712 mmHg 50%
    11:00 +36°C° 0 mm 3 m/S 712 mmHg 43%
    12:00 +36°C° 0 mm 3 m/S 711 mmHg 46%
    13:00 +35°C° 0 mm 2 m/S 710 mmHg 48%
    14:00 +34°C° 0 mm 2 m/S 709 mmHg 50%
    15:00 +34°C° 0 mm 2 m/S 709 mmHg 52%
    16:00 +32°C° 0 mm 2 m/S 708 mmHg 54%
    17:00 +32°C° 0 mm 2 m/S 707 mmHg 57%
    18:00 +30°C° 0.1 mm 2 m/S 708 mmHg 60%
    19:00 +29°C° 0.1 mm 2 m/S 709 mmHg 64%
    20:00 +28°C° 0.1 mm 2 m/S 709 mmHg 68%
    21:00 +27°C° 1.8 mm 3 m/S 709 mmHg 74%
    22:00 +27°C° 1.8 mm 3 m/S 709 mmHg 80%
    23:00 +26°C° 1.8 mm 4 m/S 709 mmHg 86%

    19 Januar, Samstag

    Zeit Temperatur Niederschläge Wind Luftdruck Luftfeuchtigkeit
    00:00 +26°C° 0.5 mm 3 m/S 709 mmHg 85%
    01:00 +26°C° 0.5 mm 2 m/S 708 mmHg 84%
    02:00 +26°C° 0.5 mm 1 m/S 708 mmHg 83%
    03:00 +26°C° 0 mm 1 m/S 708 mmHg 82%
    04:00 +26°C° 0 mm 1 m/S 708 mmHg 81%
    05:00 +26°C° 0 mm 1 m/S 708 mmHg 80%
    06:00 +27°C° 0 mm 1 m/S 709 mmHg 77%
    07:00 +28°C° 0 mm 1 m/S 710 mmHg 74%
    08:00 +29°C° 0 mm 1 m/S 711 mmHg 71%
    09:00 +30°C° 0.1 mm 1 m/S 710 mmHg 64%
    10:00 +32°C° 0.1 mm 2 m/S 710 mmHg 57%
    11:00 +35°C° 0.1 mm 2 m/S 710 mmHg 50%
    12:00 +35°C° 0 mm 2 m/S 710 mmHg 49%
    13:00 +35°C° 0 mm 2 m/S 709 mmHg 48%
    14:00 +36°C° 0 mm 2 m/S 709 mmHg 47%
    15:00 +34°C° 0.3 mm 2 m/S 708 mmHg 53%
    16:00 +32°C° 0.3 mm 2 m/S 708 mmHg 59%
    17:00 +30°C° 0.3 mm 3 m/S 708 mmHg 65%
    18:00 +29°C° 0.3 mm 3 m/S 708 mmHg 69%
    19:00 +29°C° 0.3 mm 2 m/S 708 mmHg 74%
    20:00 +28°C° 0.3 mm 2 m/S 708 mmHg 78%
    21:00 +27°C° 0.3 mm 2 m/S 708 mmHg 81%
    22:00 +27°C° 0.3 mm 2 m/S 709 mmHg 83%
    23:00 +26°C° 0.3 mm 1 m/S 709 mmHg 85%

    20 Januar, Sonntag

    Zeit Temperatur Niederschläge Wind Luftdruck Luftfeuchtigkeit
    00:00 +26°C° 1.7 mm 1 m/S 709 mmHg 85%
    01:00 +24°C° 1.7 mm 0 m/S 708 mmHg 85%
    02:00 +23°C° 1.7 mm 0 m/S 708 mmHg 85%
    03:00 +23°C° 0.2 mm 0 m/S 708 mmHg 84%
    04:00 +23°C° 0.2 mm 0 m/S 709 mmHg 84%
    05:00 +25°C° 0.2 mm 1 m/S 709 mmHg 83%
    06:00 +26°C° 0 mm 1 m/S 709 mmHg 80%
    07:00 +28°C° 0 mm 1 m/S 710 mmHg 76%
    08:00 +29°C° 0 mm 2 m/S 711 mmHg 73%
    09:00 +30°C° 0.1 mm 2 m/S 711 mmHg 65%
    10:00 +32°C° 0.1 mm 2 m/S 711 mmHg 57%
    11:00 +34°C° 0.1 mm 3 m/S 711 mmHg 49%
    12:00 +35°C° 0 mm 3 m/S 710 mmHg 46%
    13:00 +36°C° 0 mm 3 m/S 710 mmHg 44%
    14:00 +37°C° 0 mm 3 m/S 709 mmHg 41%
    15:00 +36°C° 0 mm 3 m/S 709 mmHg 45%
    16:00 +35°C° 0 mm 2 m/S 708 mmHg 49%
    17:00 +34°C° 0 mm 2 m/S 708 mmHg 53%
    18:00 +31°C° 0 mm 2 m/S 708 mmHg 55%
    19:00 +30°C° 0 mm 2 m/S 708 mmHg 56%
    20:00 +29°C° 0 mm 1 m/S 709 mmHg 58%
    21:00 +29°C° 0 mm 1 m/S 709 mmHg 61%
    22:00 +28°C° 0 mm 1 m/S 709 mmHg 63%
    23:00 +28°C° 0 mm 1 m/S 709 mmHg 65%

    21 Januar, Montag

    Zeit Temperatur Niederschläge Wind Luftdruck Luftfeuchtigkeit
    00:00 +27°C° 0 mm 1 m/S 709 mmHg 67%
    01:00 +27°C° 0 mm 1 m/S 708 mmHg 68%
    02:00 +26°C° 0 mm 1 m/S 708 mmHg 69%
    03:00 +26°C° 0 mm 1 m/S 708 mmHg 69%
    04:00 +26°C° 0 mm 1 m/S 708 mmHg 69%
    05:00 +26°C° 0 mm 1 m/S 709 mmHg 69%
    06:00 +28°C° 0 mm 1 m/S 709 mmHg 65%
    07:00 +30°C° 0 mm 2 m/S 710 mmHg 61%
    08:00 +31°C° 0 mm 2 m/S 711 mmHg 57%
    09:00 +34°C° 0.1 mm 3 m/S 711 mmHg 53%
    10:00 +35°C° 0.1 mm 3 m/S 711 mmHg 49%
    11:00 +36°C° 0.1 mm 4 m/S 711 mmHg 45%
    12:00 +35°C° 0 mm 3 m/S 710 mmHg 47%
    13:00 +35°C° 0 mm 3 m/S 710 mmHg 49%
    14:00 +34°C° 0 mm 2 m/S 709 mmHg 51%
    15:00 +34°C° 0 mm 2 m/S 709 mmHg 52%
    16:00 +34°C° 0 mm 2 m/S 708 mmHg 53%
    17:00 +34°C° 0 mm 2 m/S 708 mmHg 54%
    18:00 +31°C° 0 mm 2 m/S 709 mmHg 56%
    19:00 +30°C° 0 mm 1 m/S 709 mmHg 58%
    20:00 +29°C° 0 mm 1 m/S 709 mmHg 60%
    21:00 +29°C° 0 mm 1 m/S 710 mmHg 62%
    22:00 +28°C° 0 mm 1 m/S 710 mmHg 64%
    23:00 +28°C° 0 mm 2 m/S 710 mmHg 66%
    Mehr zeigen